Wind_Speed
9 8 8 7 8 10 13 12 13 6 8 11 13 15 14 19 25 16 23 19 18 10 8 11 6 9 11 12 13 5 6 11 9 10 10 15 8 14 16 27 32 25 22 18 19
8 8 8 9 9 12 12 12 11 6 7 10 11 8 7 7 12 28 19 17 15 9 9 7 7 10 10 11 10 8 9 7 6 15 15 25 21 10 19 24 26 27 26 24 22
8 8 8 9 9 10 13 13 9 7 6 7 3 3 3 3 8 20 20 20 17 10 10 9 12 13 17 16 8 8 9 10 12 9 5 10 25 26 7 18 23 23 23 24 26
8 8 8 8 9 9 11 13 10 7 7 7 4 7 8 3 4 19 17 19 19 11 7 9 7 6 9 10 16 16 15 14 14 13 13 15 19 27 26 19 16 18 19 23 27
9 8 8 10 10 10 11 12 13 11 12 10 11 11 13 17 14 17 14 17 17 8 13 12 15 13 10 27 27 23 21 20 18 19 18 15 23 20 20 17 16 17 21 24 24
9 10 9 10 13 12 12 12 14 13 12 10 10 11 14 27 13 15 13 13 20 19 16 15 16 22 16 8 11 23 23 19 12 13 12 17 16 13 15 15 17 19 21 21 22
9 9 9 10 14 15 15 16 15 13 12 13 17 20 30 14 13 12 13 18 17 19 20 14 7 2 11 19 21 15 15 17 18 7 6 9 17 13 12 13 17 19 20 20 21
10 10 10 11 15 18 18 20 20 18 16 11 10 15 14 10 10 7 9 13 16 20 19 15 16 20 11 18 9 5 2 4 13 9 7 9 8 9 11 13 16 17 18 18 20
11 10 11 13 17 22 21 22 17 13 12 10 10 12 8 9 13 6 7 10 15 17 23 14 18 17 12 11 8 4 6 7 6 14 2 3 8 7 10 11 14 16 17 18 20
12 12 13 16 22 24 23 21 19 16 15 12 10 9 9 11 10 10 7 6 7 5 8 15 15 11 7 5 4 8 8 7 6 9 6 9 9 7 6 9 12 14 16 17 19
13 13 15 19 26 27 29 27 14 8 25 16 17 22 11 13 12 11 11 6 7 11 11 26 16 14 14 13 11 10 9 9 6 6 1 5 7 6 7 8 11 14 16 17 17
14 15 18 24 29 32 30 6 12 20 21 18 19 21 12 6 11 18 11 8 8 10 15 13 19 11 9 8 9 7 8 7 4 6 2 2 6 5 6 7 10 12 14 16 18
14 17 21 26 29 26 17 14 29 22 10 8 7 8 6 13 12 15 9 11 22 24 18 14 7 6 8 7 8 11 8 4 3 3 3 1 5 3 4 4 8 10 12 14 17
17 18 23 24 21 21 17 31 23 10 5 3 2 3 4 5 8 13 9 3 4 8 10 13 7 7 7 9 5 5 6 1 2 5 1 3 1 5 2 3 9 11 13 15 17
17 19 22 26 12 15 24 22 13 3 3 3 4 4 8 5 8 12 10 18 10 6 3 6 9 9 8 6 8 5 4 1 2 3 6 5 4 8 3 2 5 9 12 16 17
19 19 21 23 17 18 25 16 6 1 3 5 5 6 7 10 6 5 8 12 8 17 20 11 5 9 5 1 6 5 3 4 4 2 3 3 5 7 2 4 3 4 11 15 19
18 19 21 21 19 19 22 12 2 2 2 8 7 7 6 4 5 5 6 6 1 4 3 7 7 3 8 1 1 2 3 1 2 3 2 2 5 7 3 5 7 9 12 17 21
20 19 19 17 21 25 18 2 2 4 6 4 9 10 4 5 3 3 3 4 5 2 4 3 5 5 6 5 3 7 4 2 3 2 2 3 2 3 6 8 9 12 16 21 22
19 18 17 16 23 25 5 2 3 5 10 13 13 8 5 5 3 4 2 2 3 3 0 4 5 4 7 8 4 3 4 2 1 0 4 2 2 5 2 4 8 14 19 22 20
21 18 15 19 24 19 2 2 2 5 14 16 5 5 7 9 6 6 5 2 4 2 1 2 4 1 3 2 9 5 3 2 2 1 3 4 5 1 3 7 11 14 15 15 15
22 9 12 18 21 7 2 3 4 8 12 7 6 6 5 6 5 5 5 6 4 4 2 5 1 5 3 2 2 3 3 2 1 2 2 4 2 3 2 6 10 12 12 13 13
13 5 16 23 7 2 3 6 7 11 4 5 5 6 9 7 5 4 6 2 9 9 4 2 2 3 2 2 1 1 3 4 3 2 3 4 4 6 1 5 7 9 9 11 12
9 7 16 19 4 4 4 5 4 9 8 5 4 3 4 7 4 6 5 4 11 7 6 7 1 3 5 4 3 5 3 4 3 1 9 3 2 9 4 7 8 9 9 11 13
8 4 3 6 2 11 9 8 6 4 5 7 8 7 9 6 3 8 8 4 7 5 7 4 3 3 3 2 3 4 6 9 6 5 5 11 13 9 10 8 11 10 11 12 14
5 4 8 5 4 11 10 11 12 6 4 9 4 5 9 6 7 6 7 9 6 11 5 2 2 2 6 9 10 13 10 14 15 15 9 8 12 12 11 13 15 12 13 12 14
7 6 5 5 16 14 7 10 14 7 10 9 6 12 8 6 6 9 10 8 6 10 7 5 2 2 4 6 11 17 17 17 20 22 23 22 25 25 21 17 15 15 14 14 15
7 13 8 8 13 9 9 13 14 13 4 6 13 13 8 7 7 11 7 10 10 9 11 6 5 3 2 2 9 12 18 19 18 18 15 19 23 18 16 16 14 15 14 14 16
Wind_Direction
133 139 132 128 125 109 99 97 94 92 114 115 109 94 70 61 48 65 43 11 3 39 79 84 68 89 81 67 57 49 111 97 65 49 50 28 63 52 70 62 51 51 43 26 17
145 150 142 139 130 115 105 100 101 106 129 130 115 93 67 60 50 42 31 27 27 54 99 101 78 78 68 54 51 81 88 67 57 104 79 54 53 47 73 46 36 37 35 34 35
158 150 151 138 125 116 108 102 102 116 137 156 149 4 0 58 47 9 20 25 28 53 97 105 91 78 67 67 49 54 91 104 59 113 57 60 58 45 48 40 32 28 27 31 35
167 153 152 135 121 113 108 106 107 117 125 141 130 50 62 76 51 353 18 23 22 47 109 117 76 68 72 81 81 102 80 72 67 118 84 77 75 60 56 54 38 35 33 35 35
171 157 160 138 119 111 109 110 113 118 111 114 108 79 69 71 31 19 25 27 37 59 80 90 91 85 86 103 96 94 103 85 91 90 85 80 71 70 47 38 34 33 33 33 32
175 163 160 136 122 119 118 116 124 129 121 121 104 85 89 67 20 31 32 37 47 51 72 72 87 105 87 80 71 112 97 81 74 72 70 73 63 57 39 28 30 31 31 31 29
175 166 160 142 128 126 125 121 123 116 116 114 105 84 71 55 22 37 40 50 54 63 68 72 87 117 108 99 116 111 112 79 43 75 57 299 42 45 33 34 37 34 28 25 26
176 167 157 142 131 130 126 126 124 115 105 106 88 91 80 40 35 71 65 55 53 66 76 75 89 90 88 117 114 127 126 151 46 32 15 214 74 52 34 39 42 36 33 29 23
175 167 156 144 137 134 126 129 126 121 108 102 88 89 71 26 42 69 84 68 65 61 63 73 83 86 120 133 128 38 101 77 102 29 25 355 115 75 53 50 52 44 34 28 23
170 166 157 148 141 137 134 130 123 114 108 87 74 71 64 39 57 53 131 105 43 22 28 41 62 88 73 223 100 125 116 85 63 24 44 74 97 91 70 54 50 42 33 25 20
164 161 155 148 143 142 138 133 123 75 63 80 83 92 97 75 68 47 76 65 58 74 82 52 81 63 62 60 83 102 107 116 86 30 316 78 97 90 69 48 41 33 28 28 25
163 159 155 152 151 149 150 179 162 134 85 74 81 75 70 95 61 39 56 67 86 94 101 87 60 67 72 72 92 97 105 93 96 25 275 63 107 92 57 55 41 25 29 24 18
163 160 159 160 163 168 169 163 134 117 96 71 76 59 57 65 50 23 52 84 69 76 75 82 80 79 78 84 101 64 55 59 32 23 80 179 157 141 81 65 25 23 22 25 23
165 164 163 165 170 177 169 150 141 119 98 94 91 44 20 114 58 38 41 90 76 89 82 70 68 66 82 66 340 94 15 295 232 240 87 312 99 171 76 87 38 32 25 19 14
167 167 168 167 177 168 165 158 150 118 130 152 89 75 66 88 132 29 35 64 77 90 202 102 73 49 61 39 354 46 322 278 202 157 184 58 253 104 211 225 29 31 24 16 11
167 169 172 174 173 178 169 154 132 124 140 139 141 146 102 69 69 84 68 81 85 73 78 99 89 40 35 69 16 332 174 149 167 214 203 88 330 126 33 340 287 335 357 359 357
168 169 173 183 180 178 168 150 120 93 190 157 154 158 112 108 77 73 69 71 86 112 111 120 63 75 24 223 0 50 197 169 204 208 31 87 278 38 309 275 289 313 322 335 338
165 170 169 180 174 170 167 178 162 130 157 136 144 142 131 146 104 118 135 103 68 47 128 167 162 22 10 34 12 44 16 30 282 291 350 195 242 93 305 278 277 287 306 320 324
164 164 163 167 171 170 182 78 146 173 143 148 145 162 141 141 147 155 87 95 58 8 110 139 108 117 59 54 321 55 61 20 130 53 263 165 139 228 11 324 311 322 320 323 327
157 152 154 162 168 166 89 109 94 124 138 151 143 205 162 164 168 189 166 138 123 67 335 121 122 124 99 338 54 35 97 187 73 253 262 220 255 265 14 343 340 337 341 339 337
149 129 161 159 160 165 137 129 132 148 144 164 140 140 156 150 171 156 138 146 153 115 114 137 195 141 188 201 154 156 152 107 132 291 288 301 168 130 31 347 344 345 346 341 337
145 111 160 148 128 123 156 141 135 152 130 111 114 106 155 158 151 153 161 89 161 156 137 76 87 142 96 131 269 273 198 197 240 158 256 301 288 141 93 333 337 340 344 343 339
113 106 158 155 140 154 141 126 138 157 157 136 118 124 145 155 128 136 140 125 158 167 161 168 143 142 162 160 184 239 178 87 102 253 224 236 261 173 217 289 299 308 324 330 327
134 113 126 186 166 155 155 162 139 122 121 114 117 120 137 150 94 154 143 141 173 166 126 134 177 252 301 66 118 205 185 196 197 209 239 228 271 231 278 294 302 293 296 317 319
140 130 156 174 203 166 163 164 157 152 142 153 138 183 162 146 152 152 146 137 151 148 140 195 213 237 260 252 243 258 220 205 209 220 228 269 268 268 281 295 299 293 297 300 309
142 141 118 136 160 159 149 178 171 139 162 174 184 165 166 155 176 180 165 176 172 181 172 171 220 241 272 257 261 266 259 238 230 241 246 256 272 277 280 276 278 276 282 290 303
152 142 136 147 163 164 177 162 174 145 76 166 159 149 157 115 98 124 148 158 161 168 182 175 172 184 252 316 301 272 249 235 236 239 239 246 253 274 277 260 266 276 280 290 298
Height
1550 1550 1551 1553 1553 1551 1548 1548 1548 1554 1554 1554 1554 1554 1554 1554 1555 1550 1547 1553 1549 1546 1545 1543 1544 1543 1545 1547 1548 1551 1548 1561 1572 1572 1582 1575 1571 1574 1574 1575 1576 1579 1583 1583 1577
1550 1550 1552 1551 1552 1549 1548 1549 1549 1553 1556 1556 1555 1555 1555 1555 1555 1553 1557 1553 1549 1548 1546 1547 1547 1544 1545 1550 1555 1554 1559 1575 1580 1580 1582 1582 1578 1578 1578 1579 1582 1584 1586 1584 1580
1551 1552 1553 1553 1551 1551 1548 1549 1551 1553 1554 1557 1557 1556 1556 1556 1557 1562 1558 1554 1551 1549 1548 1547 1546 1546 1551 1556 1563 1568 1575 1580 1583 1584 1583 1584 1583 1585 1577 1584 1590 1591 1590 1587 1583
1551 1551 1553 1554 1552 1551 1549 1549 1552 1555 1555 1556 1557 1556 1555 1557 1565 1567 1561 1558 1554 1551 1551 1551 1551 1552 1556 1562 1571 1576 1581 1583 1585 1585 1587 1587 1589 1588 1590 1596 1597 1596 1594 1591 1587
1550 1551 1553 1551 1551 1552 1551 1552 1553 1556 1558 1557 1557 1557 1558 1562 1570 1569 1564 1561 1557 1554 1552 1554 1555 1556 1559 1569 1574 1580 1586 1587 1590 1589 1590 1593 1594 1594 1597 1598 1598 1597 1594 1591 1591
1549 1549 1552 1551 1549 1552 1551 1554 1555 1557 1558 1560 1559 1559 1560 1564 1574 1571 1568 1566 1561 1559 1556 1556 1563 1564 1570 1575 1576 1587 1588 1590 1592 1593 1592 1592 1596 1595 1603 1602 1600 1597 1596 1595 1594
1549 1550 1551 1551 1548 1550 1553 1555 1558 1560 1561 1561 1561 1561 1560 1576 1575 1575 1572 1569 1566 1564 1561 1562 1564 1567 1573 1581 1587 1587 1588 1592 1597 1597 1597 1596 1598 1604 1606 1605 1602 1599 1597 1596 1596
1548 1548 1551 1551 1551 1551 1552 1556 1559 1561 1562 1563 1562 1561 1572 1578 1578 1576 1576 1575 1572 1569 1568 1568 1569 1569 1575 1583 1588 1586 1585 1581 1601 1598 1598 1595 1604 1610 1608 1605 1604 1603 1601 1600 1598
1547 1548 1548 1550 1551 1552 1555 1557 1562 1564 1563 1565 1565 1564 1578 1581 1578 1577 1577 1578 1577 1575 1572 1572 1572 1576 1580 1577 1579 1583 1584 1589 1597 1602 1597 1591 1598 1610 1610 1608 1606 1605 1603 1601 1600
1547 1548 1547 1548 1549 1553 1555 1560 1562 1566 1566 1567 1567 1571 1581 1584 1580 1580 1579 1580 1580 1579 1578 1577 1576 1576 1576 1573 1573 1586 1589 1597 1597 1604 1598 1598 1605 1610 1611 1609 1607 1607 1606 1603 1601
1545 1548 1549 1551 1552 1551 1552 1559 1566 1570 1570 1575 1578 1579 1582 1585 1584 1583 1581 1583 1583 1582 1583 1587 1583 1590 1593 1593 1593 1593 1593 1597 1603 1607 1601 1602 1605 1609 1611 1610 1610 1609 1608 1607 1605
1544 1547 1549 1551 1553 1553 1553 1557 1557 1566 1576 1582 1582 1583 1584 1584 1585 1585 1584 1586 1584 1585 1588 1593 1600 1607 1605 1603 1600 1598 1597 1601 1606 1607 1602 1602 1603 1608 1611 1613 1613 1611 1610 1609 1606
1544 1545 1548 1549 1553 1556 1554 1557 1558 1560 1571 1587 1586 1586 1588 1589 1589 1589 1590 1591 1589 1590 1592 1596 1614 1612 1609 1608 1604 1607 1606 1609 1607 1609 1606 1604 1603 1606 1611 1611 1611 1611 1611 1610 1608
1541 1543 1546 1551 1558 1556 1554 1554 1557 1560 1568 1589 1588 1589 1590 1589 1593 1594 1592 1594 1596 1599 1600 1609 1616 1613 1610 1612 1608 1602 1616 1614 1611 1601 1592 1605 1583 1602 1608 1608 1611 1612 1612 1611 1608
1541 1543 1547 1549 1552 1557 1556 1555 1557 1560 1563 1591 1589 1592 1591 1592 1595 1596 1595 1596 1597 1600 1600 1617 1616 1612 1611 1618 1615 1615 1617 1613 1609 1600 1599 1602 1594 1597 1607 1606 1610 1612 1613 1611 1609
1539 1544 1548 1550 1552 1554 1557 1557 1559 1564 1580 1586 1588 1590 1591 1594 1597 1599 1598 1598 1603 1603 1607 1616 1620 1620 1619 1620 1619 1618 1614 1611 1608 1604 1596 1608 1605 1593 1602 1608 1609 1612 1612 1611 1609
1539 1542 1545 1549 1551 1555 1558 1558 1561 1562 1586 1584 1583 1588 1589 1594 1598 1599 1600 1601 1601 1606 1606 1614 1620 1623 1623 1615 1615 1612 1610 1603 1601 1599 1597 1613 1607 1601 1611 1612 1611 1611 1610 1608 1607
1536 1543 1543 1549 1551 1555 1560 1560 1554 1575 1570 1580 1581 1587 1587 1593 1600 1601 1601 1601 1607 1604 1603 1601 1611 1622 1626 1623 1619 1617 1613 1613 1607 1593 1594 1609 1600 1608 1610 1610 1610 1610 1607 1606 1604
1538 1542 1544 1547 1551 1556 1562 1561 1558 1560 1566 1574 1582 1583 1589 1594 1596 1600 1602 1603 1608 1609 1604 1607 1615 1626 1627 1626 1624 1618 1617 1627 1624 1623 1611 1598 1605 1611 1607 1606 1606 1605 1605 1603 1602
1536 1541 1545 1547 1552 1559 1562 1563 1562 1564 1564 1570 1571 1579 1582 1589 1593 1594 1599 1607 1609 1611 1612 1613 1616 1623 1626 1626 1627 1621 1629 1623 1629 1621 1612 1593 1600 1597 1602 1604 1605 1605 1604 1603 1601
1537 1543 1547 1548 1555 1561 1562 1561 1565 1569 1567 1569 1574 1579 1580 1587 1588 1592 1599 1608 1609 1613 1612 1613 1615 1625 1627 1623 1620 1625 1623 1631 1629 1625 1613 1599 1581 1599 1604 1605 1605 1604 1603 1602 1601
1535 1543 1547 1549 1558 1562 1563 1561 1565 1568 1570 1571 1574 1578 1579 1584 1588 1592 1597 1600 1608 1611 1610 1617 1618 1613 1618 1627 1628 1625 1622 1622 1622 1631 1623 1616 1597 1601 1606 1606 1604 1604 1602 1601 1600
1534 1544 1546 1547 1557 1559 1563 1565 1566 1567 1568 1570 1575 1578 1583 1584 1591 1595 1599 1607 1608 1610 1611 1615 1617 1617 1615 1626 1629 1627 1630 1638 1638 1629 1617 1618 1588 1598 1602 1602 1602 1601 1600 1599 1598
1532 1543 1549 1550 1551 1550 1555 1560 1566 1568 1569 1570 1575 1579 1582 1587 1590 1595 1599 1607 1609 1610 1612 1614 1614 1616 1600 1616 1619 1628 1632 1633 1628 1625 1610 1604 1592 1592 1595 1597 1598 1598 1598 1597 1595
1528 1534 1536 1548 1551 1548 1552 1557 1561 1565 1569 1570 1574 1574 1576 1584 1589 1593 1600 1606 1610 1612 1613 1613 1617 1620 1618 1614 1614 1610 1617 1621 1629 1617 1615 1589 1589 1590 1593 1595 1595 1596 1595 1594 1592
1525 1530 1535 1540 1545 1548 1552 1554 1556 1564 1565 1568 1569 1574 1579 1581 1581 1589 1593 1598 1601 1611 1611 1615 1616 1617 1617 1610 1610 1606 1604 1605 1606 1608 1602 1601 1593 1592 1592 1593 1593 1592 1592 1590 1589
1524 1526 1531 1542 1544 1546 1547 1550 1555 1560 1569 1567 1571 1577 1581 1585 1587 1588 1594 1596 1598 1601 1606 1612 1615 1619 1609 1613 1609 1603 1588 1591 1591 1593 1595 1595 1583 1588 1589 1588 1588 1588 1587 1586 1585